Vorticity
5 7 6 7 10 11 10 8 7 6 8 10 9 9 9 10 12 12 12 12 9 6 4 4 6 7 5 5 6 10 13 14 14 12 10 10 9 10 10 11 12 12
5 4 4 6 11 11 9 7 7 8 10 10 9 8 9 10 10 11 12 12 8 5 4 3 6 8 5 3 5 9 13 13 12 10 8 8 7 7 8 8 9 9
8 5 3 6 11 9 7 8 11 14 13 10 10 10 11 12 10 10 12 12 9 5 3 3 6 7 5 3 4 8 12 12 11 11 10 10 9 8 8 7 7 7
8 7 8 10 11 9 8 12 16 17 12 9 13 16 15 13 10 12 13 12 11 6 2 3 6 6 5 4 4 8 11 10 11 12 12 12 11 10 10 8 9 9
5 8 13 12 12 11 9 13 16 15 11 11 15 15 13 12 10 11 11 10 12 8 2 3 5 6 6 4 3 7 8 7 8 9 10 11 11 10 9 8 9 10
8 13 14 9 10 10 8 12 14 11 6 7 10 8 8 10 9 9 9 8 10 8 4 4 4 6 8 6 4 6 6 5 5 6 7 7 6 6 5 6 8 10
9 11 7 4 8 9 10 12 9 4 4 7 7 5 5 6 6 7 8 8 8 6 5 4 4 5 7 7 5 5 6 6 4 4 4 5 4 4 4 4 6 7
8 7 4 6 10 11 12 9 4 5 8 11 11 11 12 12 11 11 10 10 9 6 4 4 4 5 6 8 6 5 6 6 5 4 4 5 6 5 5 4 4 5
9 7 6 8 9 11 12 7 7 7 5 8 11 14 16 15 15 15 13 13 12 10 8 7 6 6 5 6 6 6 6 5 5 4 4 5 5 6 6 5 6 6
12 11 9 9 8 8 8 6 5 3 1 6 9 11 15 16 15 15 14 14 13 11 10 9 9 9 8 7 6 5 5 5 5 4 3 2 2 4 6 6 7 7
9 12 11 10 9 6 5 6 5 3 6 8 6 5 6 5 5 5 4 5 6 7 7 7 6 6 6 7 8 8 7 5 6 5 4 3 4 6 7 8 8 8
3 6 5 6 8 7 6 5 5 6 8 7 4 4 1 -0 1 2 3 5 5 6 7 8 8 7 6 6 8 9 8 6 5 5 5 7 8 9 9 9 9 9
6 4 2 1 3 5 8 8 9 10 11 7 3 1 0 1 2 2 6 11 13 13 12 12 11 9 9 9 8 9 9 8 7 7 8 9 9 10 10 10 10 9
9 4 2 1 0 4 10 12 9 8 10 12 12 9 6 4 1 1 4 7 10 15 15 14 12 9 11 13 12 11 8 6 8 11 14 14 12 11 10 10 10 9
12 4 0 -0 2 7 11 11 9 8 9 9 9 10 9 7 2 2 8 9 8 11 15 15 13 10 11 14 12 7 3 5 9 13 16 16 13 11 10 10 10 10
10 6 4 4 6 9 10 9 7 5 1 -5 -4 1 9 18 15 6 7 11 8 8 11 13 14 12 9 8 6 3 4 8 11 13 12 11 11 10 10 10 9 10
7 7 7 5 4 2 2 3 4 5 4 3 8 9 10 25 34 20 6 5 6 7 8 10 14 15 10 6 5 4 6 7 8 10 10 9 9 9 9 8 8 9
10 11 9 6 5 5 5 4 6 13 17 16 17 13 4 9 21 18 7 3 3 2 5 10 13 11 8 7 7 7 6 4 4 7 9 8 7 7 6 7 7 7
11 10 10 9 9 12 12 8 8 14 16 12 10 9 7 7 11 14 11 6 -1 -4 2 13 16 12 6 5 5 6 7 6 6 8 9 8 5 3 3 4 5 5
14 12 12 11 8 9 10 11 13 12 11 10 9 7 7 9 13 18 18 8 -2 -4 3 13 17 13 7 2 0 1 2 5 8 10 11 10 7 4 3 3 4 5
11 9 6 3 2 4 6 10 13 10 7 6 5 3 5 7 12 20 21 8 -4 -3 5 13 16 13 7 3 -1 -2 -1 3 8 11 12 12 9 7 5 4 4 5
2 0 -0 2 5 6 6 7 8 7 6 2 -1 -1 5 9 11 13 11 1 -4 -0 6 9 11 9 5 4 3 2 3 6 8 9 9 10 9 7 6 6 7 6
6 6 7 9 9 8 7 6 4 3 3 2 1 4 8 10 8 4 0 -2 -0 3 5 6 7 5 3 4 5 7 10 10 8 6 7 9 9 8 6 6 6 6
9 10 11 10 8 7 6 5 4 3 3 3 3 5 6 7 5 2 2 3 5 6 6 7 7 6 5 6 6 7 9 10 7 2 -1 2 5 6 6 4 3 3
7 6 7 7 7 7 7 7 8 7 6 6 5 5 5 5 5 3 3 4 5 6 7 7 7 6 6 7 7 6 6 6 5 1 -2 -0 4 6 6 3 -0 -1
9 9 8 7 7 8 9 10 9 6 5 6 6 6 7 7 6 6 5 5 5 6 7 6 6 5 4 5 6 5 5 4 3 2 1 1 3 4 4 3 1 0
Height
5761 5762 5764 5766 5769 5772 5773 5775 5776 5778 5779 5780 5781 5782 5783 5783 5784 5786 5787 5788 5789 5790 5790 5791 5791 5792 5793 5793 5793 5793 5793 5793 5793 5793 5794 5794 5795 5795 5795 5795 5795 5795
5759 5761 5763 5765 5767 5769 5771 5773 5774 5776 5778 5779 5780 5781 5781 5781 5782 5784 5786 5787 5788 5788 5788 5789 5790 5791 5792 5792 5792 5792 5792 5792 5792 5792 5793 5793 5793 5794 5793 5793 5793 5794
5758 5760 5762 5764 5765 5767 5769 5770 5772 5775 5776 5777 5778 5779 5779 5779 5780 5782 5784 5786 5786 5787 5787 5787 5788 5789 5790 5790 5791 5791 5791 5791 5791 5791 5792 5792 5792 5792 5792 5792 5792 5792
5758 5760 5761 5763 5764 5765 5767 5768 5770 5773 5774 5775 5776 5777 5777 5777 5778 5780 5782 5783 5784 5785 5785 5785 5786 5787 5788 5789 5789 5789 5789 5789 5790 5790 5790 5790 5790 5790 5790 5790 5791 5791
5756 5758 5760 5761 5762 5763 5765 5766 5768 5770 5771 5772 5773 5774 5775 5776 5776 5777 5779 5781 5782 5783 5783 5783 5784 5785 5786 5787 5788 5788 5788 5788 5788 5788 5789 5789 5789 5789 5789 5789 5789 5790
5755 5757 5758 5759 5761 5762 5763 5764 5766 5768 5769 5770 5771 5772 5773 5774 5774 5775 5777 5779 5780 5781 5781 5781 5782 5783 5784 5785 5786 5787 5787 5787 5787 5787 5787 5787 5787 5787 5787 5787 5788 5788
5754 5755 5757 5758 5759 5760 5761 5762 5764 5766 5767 5768 5768 5769 5770 5771 5772 5773 5774 5776 5778 5779 5779 5780 5780 5781 5782 5783 5784 5785 5785 5785 5785 5786 5786 5786 5786 5786 5786 5786 5786 5787
5752 5754 5755 5756 5757 5758 5759 5761 5763 5764 5765 5766 5767 5767 5768 5769 5770 5771 5772 5774 5775 5776 5777 5777 5778 5779 5780 5781 5782 5782 5783 5783 5784 5784 5784 5784 5784 5785 5785 5785 5785 5785
5752 5753 5754 5755 5756 5757 5758 5759 5761 5763 5764 5765 5766 5766 5767 5767 5768 5769 5770 5771 5773 5773 5774 5775 5776 5777 5777 5779 5779 5780 5781 5781 5781 5782 5782 5782 5783 5783 5783 5783 5783 5784
5751 5751 5752 5753 5754 5755 5756 5758 5760 5762 5763 5763 5764 5764 5765 5766 5766 5767 5768 5769 5770 5771 5772 5773 5774 5774 5775 5776 5777 5778 5779 5779 5780 5780 5780 5780 5781 5781 5781 5781 5781 5782
5748 5749 5750 5751 5751 5753 5754 5756 5758 5760 5760 5761 5762 5763 5763 5764 5765 5765 5766 5767 5768 5769 5770 5770 5771 5772 5773 5774 5775 5776 5777 5777 5778 5778 5778 5778 5779 5779 5779 5779 5780 5780
5745 5746 5747 5749 5750 5751 5752 5754 5756 5756 5757 5758 5759 5760 5761 5761 5762 5763 5764 5765 5766 5767 5767 5768 5769 5770 5770 5771 5772 5773 5774 5775 5775 5776 5776 5776 5776 5777 5777 5777 5778 5778
5743 5744 5746 5748 5749 5750 5751 5752 5753 5754 5755 5756 5757 5758 5759 5759 5760 5760 5761 5762 5763 5764 5764 5765 5766 5767 5767 5768 5769 5770 5771 5772 5773 5773 5773 5773 5774 5774 5774 5775 5775 5775
5741 5743 5744 5746 5747 5748 5749 5750 5751 5752 5753 5753 5754 5755 5756 5757 5757 5758 5759 5760 5760 5761 5761 5762 5763 5764 5764 5765 5766 5767 5768 5769 5770 5770 5770 5771 5771 5771 5771 5771 5772 5772
5739 5741 5742 5742 5744 5746 5747 5747 5748 5749 5750 5751 5752 5752 5753 5754 5754 5755 5756 5757 5758 5758 5759 5759 5760 5761 5762 5763 5764 5765 5766 5766 5767 5767 5767 5768 5768 5768 5768 5769 5769 5769
5737 5738 5739 5740 5742 5743 5744 5744 5745 5746 5748 5748 5749 5749 5750 5751 5752 5753 5753 5754 5755 5756 5756 5757 5757 5758 5759 5760 5761 5762 5763 5763 5763 5764 5764 5765 5765 5766 5766 5766 5767 5767
5735 5736 5737 5738 5739 5741 5741 5741 5742 5743 5744 5745 5745 5746 5747 5748 5748 5750 5751 5752 5752 5753 5753 5754 5755 5755 5756 5757 5758 5759 5759 5759 5760 5760 5761 5761 5762 5762 5763 5763 5764 5764
5732 5733 5734 5736 5736 5737 5738 5739 5739 5740 5740 5741 5742 5743 5744 5745 5746 5747 5748 5749 5749 5750 5750 5751 5751 5752 5753 5754 5755 5755 5756 5756 5756 5756 5757 5757 5757 5758 5759 5759 5760 5760
5729 5730 5731 5732 5733 5734 5735 5736 5736 5737 5738 5739 5740 5741 5741 5742 5743 5744 5745 5746 5747 5747 5748 5748 5748 5749 5750 5750 5751 5752 5752 5752 5753 5753 5753 5753 5753 5753 5754 5754 5755 5755
5726 5727 5728 5729 5730 5731 5732 5733 5734 5735 5736 5736 5737 5738 5739 5739 5740 5741 5742 5743 5744 5745 5745 5745 5746 5746 5746 5747 5748 5748 5749 5749 5749 5749 5749 5749 5749 5749 5750 5750 5750 5750
5722 5724 5725 5726 5727 5728 5729 5730 5731 5732 5733 5734 5735 5735 5736 5736 5737 5738 5739 5740 5741 5742 5742 5742 5743 5743 5744 5744 5744 5745 5745 5746 5746 5746 5746 5746 5746 5746 5746 5746 5746 5746
5719 5720 5721 5722 5724 5725 5726 5727 5728 5729 5730 5731 5732 5732 5733 5733 5734 5735 5736 5737 5737 5738 5739 5739 5740 5740 5740 5741 5741 5741 5741 5742 5742 5742 5742 5742 5742 5742 5742 5742 5742 5742
5716 5717 5718 5719 5720 5721 5722 5723 5724 5725 5726 5727 5728 5729 5730 5730 5731 5731 5732 5733 5734 5734 5735 5735 5736 5736 5737 5737 5737 5737 5737 5737 5738 5738 5737 5737 5737 5737 5737 5737 5737 5738
5713 5713 5714 5716 5717 5718 5718 5719 5720 5721 5723 5724 5724 5725 5726 5727 5727 5728 5728 5729 5730 5730 5730 5731 5731 5732 5732 5733 5733 5733 5733 5733 5733 5733 5733 5733 5732 5732 5732 5732 5732 5732
5709 5710 5711 5712 5713 5714 5715 5716 5717 5718 5719 5720 5721 5722 5722 5723 5723 5724 5724 5725 5725 5726 5726 5727 5727 5727 5728 5728 5728 5728 5729 5729 5729 5729 5728 5728 5728 5727 5727 5727 5727 5726
5705 5706 5708 5709 5709 5710 5711 5712 5713 5714 5714 5715 5716 5717 5718 5719 5719 5719 5720 5720 5720 5721 5721 5722 5722 5723 5723 5723 5723 5723 5723 5723 5724 5723 5723 5723 5723 5722 5722 5721 5720 5720